W7BNW Weather Reports


Display with metric or nautical units.
time (UTC)temp
F
wind
direction
speed
MPH
gust
MPH
rain 1hr
in
rain 24hr
in
rain mn
in
humidity
%
barometer
mb
20260507025059 66 246 9.0 19.0 0.00 0.00 0.00 30 1012.6
20260507025001 66 248 8.0 19.0 0.00 0.00 0.00 30 1012.7
20260507024559 67 249 12.0 19.0 0.00 0.00 0.00 30 1012.6
20260507024058 67 237 11.0 18.0 0.00 0.00 0.00 30 1012.5
20260507023557 67 229 10.0 16.0 0.00 0.00 0.00 29 1012.4
20260507023057 67 243 10.0 16.0 0.00 0.00 0.00 29 1012.3
20260507022557 68 250 11.0 20.0 0.00 0.00 0.00 29 1012.2
20260507022057 68 238 12.0 20.0 0.00 0.00 0.00 29 1012.1
20260507021557 68 246 11.0 17.0 0.00 0.00 0.00 28 1012.1
20260507021056 69 224 12.0 17.0 0.00 0.00 0.00 28 1012.0
20260507020556 69 243 8.0 16.0 0.00 0.00 0.00 28 1012.0
20260507020113 69 237 10.0 20.0 0.00 0.00 0.00 28 1012.1
20260507015555 70 251 10.0 19.0 0.00 0.00 0.00 28 1012.1
20260507015055 70 246 12.0 18.0 0.00 0.00 0.00 27 1012.0
20260507014559 71 239 10.0 16.0 0.00 0.00 0.00 27 1012.0
20260507014056 71 219 8.0 18.0 0.00 0.00 0.00 26 1012.0
20260507013554 71 216 12.0 18.0 0.00 0.00 0.00 26 1012.0
20260507013054 72 223 8.0 16.0 0.00 0.00 0.00 26 1011.9
20260507012554 72 225 11.0 16.0 0.00 0.00 0.00 25 1011.9
20260507012054 73 234 12.0 16.0 0.00 0.00 0.00 25 1011.9
20260507011554 73 240 10.0 18.0 0.00 0.00 0.00 25 1011.9
20260507011053 73 230 11.0 18.0 0.00 0.00 0.00 24 1011.9
20260507010553 74 244 8.0 14.0 0.00 0.00 0.00 24 1012.0
20260507010106 74 257 9.0 17.0 0.00 0.00 0.00 24 1011.9
20260507005553 73 248 10.0 17.0 0.00 0.00 0.00 24 1011.8
20260507005052 74 237 14.0 17.0 0.00 0.00 0.00 23 1011.8
20260507004555 74 259 7.0 20.0 0.00 0.00 0.00 22 1011.8
20260507004053 74 242 11.0 20.0 0.00 0.00 0.00 24 1011.8
20260507003553 74 242 13.0 17.0 0.00 0.00 0.00 23 1011.5
20260507003052 75 246 11.0 17.0 0.00 0.00 0.00 22 1011.8
20260507002551 76 232 9.0 17.0 0.00 0.00 0.00 22 1011.5
20260507002051 76 244 11.0 18.0 0.00 0.00 0.00 22 1011.6
20260507001556 76 255 12.0 18.0 0.00 0.00 0.00 22 1011.5
20260507001050 76 202 6.0 14.0 0.00 0.00 0.00 20 1011.4
20260507000549 76 300 7.0 11.0 0.00 0.00 0.00 20 1011.5
20260507000050 76 294 6.0 17.0 0.00 0.00 0.00 21 1011.4
20260506235549 76 263 11.0 17.0 0.00 0.00 0.00 19 1011.3
20260506235048 76 301 8.0 17.0 0.00 0.00 0.00 20 1011.5
20260506234552 77 266 12.0 17.0 0.00 0.00 0.00 19 1011.4
20260506234048 77 260 8.0 18.0 0.00 0.00 0.00 19 1011.3
20260506233551 77 300 12.0 18.0 0.00 0.00 0.00 19 1011.3
20260506233047 77 267 10.0 14.0 0.00 0.00 0.00 18 1011.4
20260506232546 77 281 9.0 15.0 0.00 0.00 0.00 20 1011.5
20260506232044 76 279 9.0 19.0 0.00 0.00 0.00 20 1011.5
20260506231603 75 242 10.0 19.0 0.00 0.00 0.00 21 1011.5
20260506231043 74 72 2.0 8.0 0.00 0.00 0.00 21 1011.6
20260506230543 73 279 4.0 9.0 0.00 0.00 0.00 22 1011.9
20260506225541 73 117 2.0 9.0 0.00 0.00 0.00 22 1011.8
20260506225042 73 274 2.0 10.0 0.00 0.00 0.00 22 1011.8
20260506224541 74 286 7.0 13.0 0.00 0.00 0.00 21 1011.9
20260506224040 75 210 6.0 14.0 0.00 0.00 0.00 21 1011.9
20260506223543 75 247 5.0 14.0 0.00 0.00 0.00 21 1011.9
20260506223039 75 254 5.0 20.0 0.00 0.00 0.00 21 1011.9
20260506222540 75 248 13.0 20.0 0.00 0.00 0.00 20 1011.8
20260506222040 75 265 9.0 16.0 0.00 0.00 0.00 21 1012.2
20260506221541 74 314 9.0 15.0 0.00 0.00 0.00 21 1012.2
20260506221038 75 189 5.0 18.0 0.00 0.00 0.00 21 1012.4
20260506220535 75 275 8.0 18.0 0.00 0.00 0.00 21 1012.6
20260506220038 74 227 5.0 15.0 0.00 0.00 0.00 21 1012.5
20260506215534 75 271 9.0 15.0 0.00 0.00 0.00 21 1012.7
20260506215034 75 342 10.0 15.0 0.00 0.00 0.00 21 1012.8
20260506214538 74 336 9.0 13.0 0.00 0.00 0.00 22 1012.9
20260506214034 74 304 2.0 13.0 0.00 0.00 0.00 23 1012.9
20260506213532 74 261 8.0 13.0 0.00 0.00 0.00 22 1013.0
20260506213033 74 248 5.0 13.0 0.00 0.00 0.00 23 1013.1
20260506212531 73 309 4.0 13.0 0.00 0.00 0.00 22 1013.1
20260506212030 73 128 4.0 12.0 0.00 0.00 0.00 22 1013.2
20260506211629 73 307 7.0 14.0 0.00 0.00 0.00 22 1013.3
20260506211030 73 243 8.0 14.0 0.00 0.00 0.00 22 1013.4
20260506210530 73 246 3.0 16.0 0.00 0.00 0.00 22 1013.3
20260506210032 73 266 11.0 16.0 0.00 0.00 0.00 23 1013.4
20260506205529 73 270 6.0 12.0 0.00 0.00 0.00 23 1013.5
20260506205029 74 304 8.0 18.0 0.00 0.00 0.00 23 1013.6
20260506204533 73 288 6.0 18.0 0.00 0.00 0.00 24 1013.5
20260506204026 72 292 7.0 17.0 0.00 0.00 0.00 23 1013.9
20260506203525 72 195 9.0 17.0 0.00 0.00 0.00 24 1013.8
20260506203025 72 231 7.0 12.0 0.00 0.00 0.00 24 1013.9
20260506202524 71 267 3.0 19.0 0.00 0.00 0.00 24 1014.0
20260506202025 71 223 8.0 19.0 0.00 0.00 0.00 24 1014.3
20260506201535 72 242 9.0 21.0 0.00 0.00 0.00 24 1014.2
20260506201024 72 290 11.0 21.0 0.00 0.00 0.00 25 1014.3
20260506200523 71 266 7.0 16.0 0.00 0.00 0.00 25 1014.5
20260506200023 70 264 9.0 17.0 0.00 0.00 0.00 26 1014.5
20260506195523 70 250 9.0 18.0 0.00 0.00 0.00 25 1014.6
20260506195022 71 316 12.0 23.0 0.00 0.00 0.00 24 1014.7
20260506194521 70 278 11.0 23.0 0.00 0.00 0.00 26 1014.6
20260506194024 69 268 8.0 17.0 0.00 0.00 0.00 25 1014.7
20260506193518 69 266 11.0 19.0 0.00 0.00 0.00 26 1014.9
20260506193024 69 272 9.0 19.0 0.00 0.00 0.00 26 1014.7
20260506192518 68 256 7.0 17.0 0.00 0.00 0.00 26 1014.7
20260506192021 69 315 7.0 15.0 0.00 0.00 0.00 26 1014.9
20260506191517 68 287 9.0 15.0 0.00 0.00 0.00 27 1014.9
20260506191018 68 342 7.0 14.0 0.00 0.00 0.00 26 1015.0
20260506190516 68 315 4.0 14.0 0.00 0.00 0.00 27 1015.1
20260506190025 68 335 8.0 14.0 0.00 0.00 0.00 27 1015.2
20260506185515 67 271 8.0 13.0 0.00 0.00 0.00 27 1015.3
20260506185014 67 96 2.0 14.0 0.00 0.00 0.00 26 1015.3
20260506184520 67 232 7.0 13.0 0.00 0.00 0.00 27 1015.3
20260506184014 67 265 3.0 10.0 0.00 0.00 0.00 26 1015.4
20260506183513 67 272 6.0 10.0 0.00 0.00 0.00 26 1015.4
20260506183012 66 174 4.0 10.0 0.00 0.00 0.00 27 1015.4
20260506182511 66 209 5.0 12.0 0.00 0.00 0.00 26 1015.4
20260506182009 65 240 3.0 12.0 0.00 0.00 0.00 28 1015.5
20260506181512 65 131 4.0 10.0 0.00 0.00 0.00 27 1015.6
20260506181009 64 291 2.0 11.0 0.00 0.00 0.00 28 1015.7
20260506180508 64 311 6.0 13.0 0.00 0.00 0.00 28 1015.7
20260506180014 64 321 4.0 12.0 0.00 0.00 0.00 28 1015.6
20260506175509 64 355 4.0 12.0 0.00 0.00 0.00 28 1015.6
20260506175007 65 259 8.0 12.0 0.00 0.00 0.00 28 1015.8
20260506174518 64 345 3.0 7.0 0.00 0.00 0.00 29 1015.7
20260506174006 63 294 2.0 7.0 0.00 0.00 0.00 29 1015.7
20260506173505 63 173 1.0 9.0 0.00 0.00 0.00 29 1015.7
20260506173005 63 273 3.0 13.0 0.00 0.00 0.00 30 1015.8
20260506172503 62 322 5.0 13.0 0.00 0.00 0.00 31 1015.7
20260506172002 62 281 5.0 9.0 0.00 0.00 0.00 30 1015.8
20260506171501 61 193 2.0 10.0 0.00 0.00 0.00 31 1015.8
20260506171002 61 212 4.0 10.0 0.00 0.00 0.00 31 1015.8
20260506170502 62 296 5.0 9.0 0.00 0.00 0.00 31 1015.8
20260506165601 61 269 1.0 5.0 0.00 0.00 0.00 34 1015.9
20260506165058 60 302 1.0 7.0 0.00 0.00 0.00 35 1015.8
20260506164559 60 295 2.0 8.0 0.00 0.00 0.00 35 1016.0
20260506164058 60 234 2.0 8.0 0.00 0.00 0.00 34 1016.0
20260506163557 59 236 1.0 4.0 0.00 0.00 0.00 35 1015.8
20260506163057 58 227 1.0 5.0 0.00 0.00 0.00 36 1015.9
20260506162553 58 252 1.0 5.0 0.00 0.00 0.00 36 1016.0
20260506162055 58 199 2.0 4.0 0.00 0.00 0.00 38 1015.9
20260506161553 58 198 1.0 4.0 0.00 0.00 0.00 38 1015.9
20260506161052 58 222 2.0 4.0 0.00 0.00 0.00 39 1016.0
20260506160551 57 135 1.0 4.0 0.00 0.00 0.00 40 1016.0
20260506160101 56 136 1.0 4.0 0.00 0.00 0.00 41 1016.0
20260506155548 56 158 0.0 4.0 0.00 0.00 0.00 42 1016.1
20260506155047 55 144 1.0 4.0 0.00 0.00 0.00 43 1016.1
20260506154546 54 197 1.0 3.0 0.00 0.00 0.00 43 1016.0
20260506154046 54 302 0.0 3.0 0.00 0.00 0.00 44 1016.1
20260506153545 53 302 0.0 3.0 0.00 0.00 0.00 43 1016.1
20260506153043 52 301 0.0 3.0 0.00 0.00 0.00 44 1016.2
20260506152544 51 300 1.0 3.0 0.00 0.00 0.00 44 1016.2
20260506152038 50 306 0.0 3.0 0.00 0.00 0.00 45 1016.1
20260506151541 49 304 0.0 3.0 0.00 0.00 0.00 46 1016.1
20260506151035 48 304 0.0 2.0 0.00 0.00 0.00 47 1016.0
20260506150536 47 304 0.0 2.0 0.00 0.00 0.00 48 1016.1
20260506150032 46 305 0.0 2.0 0.00 0.00 0.00 49 1016.1
20260506145531 45 305 0.0 4.0 0.00 0.00 0.00 50 1016.1
20260506145030 45 305 1.0 4.0 0.00 0.00 0.00 50 1016.1
20260506144530 44 280 1.0 3.0 0.00 0.00 0.00 51 1016.1
20260506144030 43 280 1.0 3.0 0.00 0.00 0.00 52 1016.1
20260506143531 43 280 1.0 3.0 0.00 0.00 0.00 52 1016.0
20260506143027 42 280 0.0 3.0 0.00 0.00 0.00 53 1016.0
20260506142526 41 280 1.0 3.0 0.00 0.00 0.00 54 1016.1
20260506142026 40 279 1.0 3.0 0.00 0.00 0.00 55 1016.2
20260506141526 39 279 2.0 4.0 0.00 0.00 0.00 55 1016.3
20260506141026 39 279 1.0 4.0 0.00 0.00 0.00 56 1016.4
20260506140526 38 279 3.0 4.0 0.00 0.00 0.00 55 1016.4
20260506140031 38 292 2.0 4.0 0.00 0.00 0.00 55 1016.4
20260506135528 38 279 2.0 4.0 0.00 0.00 0.00 54 1016.3
20260506135024 38 277 1.0 2.0 0.00 0.00 0.00 55 1016.2
20260506134524 38 277 1.0 2.0 0.00 0.00 0.00 56 1016.2
20260506134025 37 277 0.0 2.0 0.00 0.00 0.00 57 1016.1
20260506133523 37 277 0.0 3.0 0.00 0.00 0.00 57 1016.0
20260506133028 36 277 1.0 3.0 0.00 0.00 0.00 57 1015.9
20260506132522 36 277 1.0 2.0 0.00 0.00 0.00 59 1015.9
20260506132023 35 296 0.0 1.0 0.00 0.00 0.00 60 1016.0
20260506131521 34 296 0.0 0.0 0.00 0.00 0.00 61 1015.7
20260506131023 33 296 0.0 0.0 0.00 0.00 0.00 61 1015.5
20260506130520 33 296 0.0 0.0 0.00 0.00 0.00 61 1015.5
20260506130019 33 296 0.0 0.0 0.00 0.00 0.00 61 1015.4
20260506125518 33 296 0.0 0.0 0.00 0.00 0.00 60 1015.3
20260506125017 33 296 0.0 0.0 0.00 0.00 0.00 59 1015.2
20260506124521 33 296 0.0 2.0 0.00 0.00 0.00 59 1015.1
20260506124018 33 296 0.0 2.0 0.00 0.00 0.00 59 1015.0
20260506123516 33 296 1.0 3.0 0.00 0.00 0.00 59 1015.0
20260506123014 34 296 2.0 3.0 0.00 0.00 0.00 59 1015.0
20260506122513 34 307 0.0 2.0 0.00 0.00 0.00 59 1014.9
20260506122014 34 307 0.0 2.0 0.00 0.00 0.00 57 1014.9
20260506121511 34 307 1.0 3.0 0.00 0.00 0.00 57 1014.8
20260506121010 34 307 1.0 3.0 0.00 0.00 0.00 58 1014.8
20260506120509 34 307 1.0 3.0 0.00 0.00 0.00 59 1014.6
20260506120009 34 307 0.0 2.0 0.00 0.00 0.00 60 1014.6
20260506115509 34 307 0.0 2.0 0.00 0.00 0.00 60 1014.4
20260506115007 34 307 0.0 0.0 0.00 0.00 0.00 59 1014.3
20260506114527 34 307 0.0 0.0 0.00 0.00 0.00 58 1014.3
20260506114007 34 307 0.0 0.0 0.00 0.00 0.00 58 1014.4
20260506113507 34 307 0.0 1.0 0.00 0.00 0.00 58 1014.4
20260506113006 34 307 0.0 3.0 0.00 0.00 0.00 58 1014.4
20260506112507 34 307 1.0 3.0 0.00 0.00 0.00 58 1014.5
20260506112005 34 307 1.0 2.0 0.00 0.00 0.00 57 1014.4
20260506111504 35 307 0.0 3.0 0.00 0.00 0.00 57 1014.4
20260506111004 35 307 1.0 3.0 0.00 0.00 0.00 56 1014.4
20260506110501 35 307 1.0 3.0 0.00 0.00 0.00 56 1014.4
20260506110101 35 307 1.0 3.0 0.00 0.00 0.00 57 1014.4
20260506105600 35 307 2.0 4.0 0.00 0.00 0.00 57 1014.3
20260506105104 36 294 2.0 4.0 0.00 0.00 0.00 56 1014.2
20260506104606 36 270 2.0 4.0 0.00 0.00 0.00 57 1014.2
20260506104058 37 237 2.0 3.0 0.00 0.00 0.00 58 1014.1
20260506103556 37 171 3.0 4.0 0.00 0.00 0.00 59 1013.9
20260506103055 38 171 3.0 4.0 0.00 0.00 0.00 58 1013.8
20260506102555 38 171 3.0 5.0 0.00 0.00 0.00 58 1013.8
20260506102053 39 169 3.0 5.0 0.00 0.00 0.00 57 1013.7
20260506101552 39 164 3.0 6.0 0.00 0.00 0.00 58 1013.8
20260506101052 38 162 4.0 6.0 0.00 0.00 0.00 58 1013.6
20260506100552 38 159 2.0 6.0 0.00 0.00 0.00 58 1013.6
20260506100104 38 155 3.0 6.0 0.00 0.00 0.00 58 1013.4
20260506095552 38 152 3.0 6.0 0.00 0.00 0.00 58 1013.2
20260506095049 38 165 4.0 6.0 0.00 0.00 0.00 58 1013.1
20260506094548 38 173 3.0 5.0 0.00 0.00 0.00 57 1013.0
20260506094045 38 176 3.0 5.0 0.00 0.00 0.00 56 1013.1
20260506093544 38 202 1.0 3.0 0.00 0.00 0.00 56 1013.0
20260506093043 38 202 1.0 4.0 0.00 0.00 0.00 57 1013.0
20260506092543 38 203 2.0 4.0 0.00 0.00 0.00 57 1012.9
20260506092045 38 215 1.0 2.0 0.00 0.00 0.00 56 1012.9
20260506091542 39 215 0.0 3.0 0.00 0.00 0.00 55 1012.9
20260506091041 39 215 2.0 3.0 0.00 0.00 0.00 55 1012.9
20260506090540 39 215 1.0 3.0 0.00 0.00 0.00 54 1012.9
20260506090040 39 215 1.0 2.0 0.00 0.00 0.00 53 1012.9
20260506085538 39 215 1.0 2.0 0.00 0.00 0.00 52 1013.0
20260506085038 39 215 1.0 3.0 0.00 0.00 0.00 51 1012.9
20260506084541 39 215 0.0 3.0 0.00 0.00 0.00 51 1012.9
20260506084037 39 205 2.0 3.0 0.00 0.00 0.00 50 1012.9
20260506083535 40 205 0.0 2.0 0.00 0.00 0.00 50 1012.9
20260506083033 40 205 1.0 2.0 0.00 0.00 0.00 51 1012.7
20260506082531 40 205 0.0 2.0 0.00 0.00 0.00 51 1012.7
20260506082031 41 205 1.0 2.0 0.00 0.00 0.00 52 1012.8
20260506081530 41 205 1.0 3.0 0.00 0.00 0.00 51 1012.7
20260506081029 41 205 1.0 4.0 0.00 0.00 0.00 52 1012.7
20260506080529 42 181 3.0 4.0 0.00 0.00 0.00 53 1012.7
20260506073524 42 181 4.0 6.0 0.00 0.00 0.00 51 1012.7
20260506073021 43 184 4.0 6.0 0.00 0.00 0.00 50 1012.7
20260506072520 43 182 3.0 5.0 0.00 0.00 0.00 49 1012.7
20260506072020 43 183 3.0 5.0 0.00 0.00 0.00 49 1012.6
20260506071518 43 182 3.0 5.0 0.00 0.00 0.00 50 1012.7
20260506071017 43 182 2.0 4.0 0.00 0.00 0.00 50 1012.6
20260506070515 43 181 2.0 3.0 0.00 0.00 0.00 50 1012.6
20260506062512 48 180 0.0 2.0 0.00 0.00 0.00 44 1012.3
20260506062012 48 180 0.0 4.0 0.00 0.00 0.00 43 1012.3
20260506061512 48 191 2.0 3.0 0.00 0.00 0.00 42 1012.1
20260506061013 49 208 0.0 0.0 0.00 0.00 0.00 42 1012.0
20260506060511 49 208 0.0 1.0 0.00 0.00 0.00 42 1011.9
20260506051008 52 5 0.0 2.0 0.00 0.00 0.00 39 1011.4
20260506050506 52 5 0.0 1.0 0.00 0.00 0.00 38 1011.4
20260506045005 52 63 0.0 2.0 0.00 0.00 0.00 39 1011.5
20260506044504 52 63 0.0 2.0 0.00 0.00 0.00 39 1011.4
20260506044004 52 50 0.0 2.0 0.00 0.00 0.00 38 1011.4
20260506043505 52 40 0.0 1.0 0.00 0.00 0.00 38 1011.4
20260506043003 53 40 0.0 2.0 0.00 0.00 0.00 38 1011.2
20260506042507 53 40 0.0 2.0 0.00 0.00 0.00 37 1011.1
20260506042002 54 44 0.0 4.0 0.00 0.00 0.00 37 1011.1
20260506041501 54 46 1.0 5.0 0.00 0.00 0.00 36 1011.0
20260506041001 54 61 2.0 5.0 0.00 0.00 0.00 36 1010.9
20260506040501 54 53 2.0 4.0 0.00 0.00 0.00 36 1010.9
20260506040001 54 61 1.0 3.0 0.00 0.00 0.00 36 1010.9
20260506035602 55 55 0.0 4.0 0.00 0.00 0.00 36 1010.8
20260506035100 55 55 1.0 5.0 0.00 0.00 0.00 36 1010.6
20260506034604 55 62 2.0 5.0 0.00 0.00 0.00 36 1010.6
20260506034058 55 79 0.0 3.0 0.00 0.00 0.00 36 1010.4
20260506033558 55 59 1.0 5.0 0.00 0.00 0.00 36 1010.4
20260506033058 55 69 1.0 3.0 0.00 0.00 0.00 36 1010.3
20260506032556 55 61 1.0 4.0 0.00 0.00 0.00 36 1010.2
20260506032055 56 56 1.0 8.0 0.00 0.00 0.00 35 1010.1
20260506031558 56 58 2.0 8.0 0.00 0.00 0.00 35 1010.0
20260506031054 56 73 2.0 4.0 0.00 0.00 0.00 35 1009.8
20260506030553 56 77 2.0 5.0 0.00 0.00 0.00 35 1009.8
20260506025555 56 88 2.0 6.0 0.00 0.00 0.00 35 1009.5